Portada
METAR-TAF:

METAR-TAF

Aeropuertos :

Bandar Kangan, Irán

latitud: 27-49-14N, longitud: 52-21-08E, altitud: 662 m

Observación

El informe se hizo hace 10 horas y 32 minutos, a las 15:00 UTC
Viento 8 kt del noroeste
Temperatura 16°C
Humedad 48%
Presión 1017 hPa
Visibilidad: 8000 m

METAR: OIBJ 261500Z 31008KT 8000 NSC 16/05 Q1017

Hora: 05:02 (01:32 UTC)


TAF: falta

Observaciones y pronósticos meteorológicos de más de 4000 aeropuertos (mensajes METAR y TAF).

Los puntos amarillos y rojos representan las estaciones disponibles.

Ponga el ratón en el punto deseado para ver el nombre de la estación.

Haga clic para ver las observaciones y los pronósticos meteorológicos.

Para cambiar el mapa : haga clic en los botones verdes con una cruz de color negro para hacer un zoom, en el botón verde con un guión para alejar o en las flechas verdes para mapas adyacentes.


METAR-TAF: